Weather History for Rapid City, SD

Change the Weather History Date:

Saturday, February 16, 2013

  Actual Average Record
Temperature  
Mean Temperature 41 °F 27 °F  
Max Temperature 57 °F 40 °F 67 °F (2011)
Min Temperature 24 °F 15 °F -17 °F (1979)
Degree Days  
Heating Degree Days 24 38  
Month to date heating degree days 535 620  
Since 1 July heating degree days 4528 4776  
Cooling Degree Days 0 0  
Month to date cooling degree days 0 0  
Year to date cooling degree days 0 0  
Moisture  
Dew Point 22 °F    
Average Humidity 50    
Maximum Humidity 69    
Minimum Humidity 30    
Precipitation  
Precipitation 0.00 in 0.02 in 0.27 in (1998)
Month to date precipitation 0.06 0.20  
Year to date precipitation 0.49 0.50  
Snow  
Snow 0.00 in 0.20 in - ()
Month to date snowfall 1.9 2.8  
Since 1 July snowfall 18.5 20.4  
Snow Depth 0.00 in    
Sea Level Pressure  
Sea Level Pressure 29.98 in    
Wind  
Wind Speed 12 mph (NNW)    
Max Wind Speed 28 mph    
Max Gust Speed 35 mph    
Visibility 10 miles    
Events      
T = Trace of Precipitation, MM = Missing Value Source: NWS Daily Summary

Daily Weather History Graph

Daily Weather History Graph

Search for Another Location

Airport:

Trip Planner

Search our weather history database for the weather conditions in past years. The results will help you decide how hot, cold, wet, or windy it might be!

Date:

Astronomy

Feb. 16, 2013 Rise Set
Actual Time 6:49 AM MST 5:23 PM MST
Civil Twilight 6:19 AM MST 5:53 PM MST
Nautical Twilight 5:46 AM MST 6:27 PM MST
Astronomical Twilight 5:12 AM MST 7:00 PM MST
Moon 9:48 AM MST (2/16) No Moon Set
Length of Visible Light 11h 33m
Length of Day
10h 34m
Waxing Crescent, 40% of the Moon is Illuminated
Feb 16
Waxing Crescent
Feb 17
First Quarter
Feb 25
Full
Mar 4
Last Quarter
Mar 11
New

Hourly Weather History & Observations

Time (MST) Temp. Windchill Dew Point Humidity Pressure Visibility Wind Dir Wind Speed Gust Speed Precip Events Conditions
12:52 AM 26.1 °F 19.4 °F 15.1 °F 63% 30.12 in 10.0 mi East 5.8 mph - N/A   Overcast
1:52 AM 28.0 °F 24.2 °F 16.0 °F 61% 30.10 in 10.0 mi ESE 3.5 mph - N/A   Overcast
2:52 AM 28.0 °F 24.2 °F 18.0 °F 66% 30.06 in 10.0 mi East 3.5 mph - N/A   Overcast
3:52 AM 32.0 °F 25.6 °F 19.9 °F 61% 30.04 in 10.0 mi WNW 6.9 mph - N/A   Mostly Cloudy
4:52 AM 41.0 °F 32.2 °F 24.1 °F 51% 30.01 in 10.0 mi NNW 18.4 mph - N/A   Clear
5:52 AM 42.1 °F 32.8 °F 24.1 °F 49% 30.03 in 10.0 mi NW 21.9 mph 27.6 mph N/A   Clear
6:52 AM 39.0 °F 32.3 °F 24.1 °F 55% 30.04 in 10.0 mi WNW 10.4 mph - N/A   Overcast
7:52 AM 35.1 °F 31.0 °F 23.0 °F 61% 30.06 in 10.0 mi ESE 4.6 mph - N/A   Mostly Cloudy
8:52 AM 45.0 °F 40.1 °F 25.0 °F 46% 30.04 in 10.0 mi NNW 9.2 mph - N/A   Mostly Cloudy
9:52 AM 48.9 °F - 24.1 °F 38% 30.03 in 10.0 mi NNW 15.0 mph - N/A   Overcast
10:52 AM 54.0 °F - 24.1 °F 31% 30.01 in 10.0 mi NNW 25.3 mph 31.1 mph N/A   Overcast
11:52 AM 55.0 °F - 25.0 °F 31% 29.98 in 10.0 mi NNW 20.7 mph 29.9 mph N/A   Clear
12:52 PM 55.9 °F - 24.1 °F 29% 29.96 in 10.0 mi NNW 24.2 mph 33.4 mph N/A   Clear
1:52 PM 55.9 °F - 24.1 °F 29% 29.94 in 10.0 mi NNW 23.0 mph 28.8 mph N/A   Clear
2:52 PM 55.0 °F - 24.1 °F 30% 29.93 in 10.0 mi NNW 21.9 mph 29.9 mph N/A   Clear
3:52 PM 54.0 °F - 24.1 °F 31% 29.93 in 10.0 mi NNW 19.6 mph - N/A   Clear
4:52 PM 50.0 °F - 24.1 °F 36% 29.91 in 10.0 mi North 11.5 mph - N/A   Clear
5:52 PM 39.0 °F 31.0 °F 21.9 °F 50% 29.92 in 10.0 mi North 13.8 mph - N/A   Clear
6:52 PM 37.0 °F 30.4 °F 21.9 °F 54% 29.94 in 10.0 mi WNW 9.2 mph - N/A   Clear
7:52 PM 30.9 °F 27.5 °F 21.0 °F 67% 29.95 in 10.0 mi NW 3.5 mph - N/A   Clear
8:52 PM 32.0 °F 27.5 °F 21.0 °F 64% 29.91 in 10.0 mi WNW 4.6 mph - N/A   Clear
9:52 PM 30.9 °F 24.3 °F 21.9 °F 69% 29.88 in 10.0 mi WNW 6.9 mph - N/A   Clear
10:52 PM 30.9 °F 26.2 °F 21.0 °F 67% 29.84 in 10.0 mi WNW 4.6 mph - N/A   Clear
11:52 PM 28.9 °F - 19.9 °F 69% 29.83 in 10.0 mi Calm Calm - N/A   Clear